Regional Weather Roundup
Issued by NWS

Home | Current Version | Previous Version | Graphics & Text | Print | Product List | Glossary On
Versions: 1 2 3 4 5 6 7 8 9 10 11 12 13 14 15 16 17 18 19 20 21 22 23 24 25 26 27 28 29 30 31 32 33 34 35 36 37 38 39 40 41 42 43 44 45 46 47 48 49 50
000
ASUS45 KCYS 190510
RWRWY

WYOMING REGIONAL WEATHER ROUNDUP
NATIONAL WEATHER SERVICE CHEYENNE WY
1000 PM MST WED JAN 18 2017

NOTE:  "FAIR" INDICATES FEW OR NO CLOUDS BELOW 12,000 FEET
WITH NO SIGNIFICANT WEATHER AND/OR OBSTRUCTIONS TO VISIBILITY.

WYZ001-190600-
YELLOWSTONE NATIONAL PARK

CITY           SKY/WX    TMP DP  RH WIND       PRES   REMARKS
LK YELLOWSTONE   N/A      8   6  92 CALM      29.82F
W YELLOWSTONE  NOT AVBL

$$
WYZ002>013-054>058-071-098>099-190600-
NORTHERN WYOMING

CITY           SKY/WX    TMP DP  RH WIND       PRES   REMARKS
JACKSON        CLOUDY     9   7  92 CALM      29.86F
CODY           FAIR      29  16  58 VRB5      29.67R WCI  24
GREYBULL       FAIR       6   2  83 NW3       29.71F
WORLAND        FAIR      19  14  81 W7        29.69F WCI  10
SHERIDAN       FAIR      26  18  71 S7        29.60F WCI  18
BUFFALO        FAIR      39  19  44 W9        29.63F WCI  33
GILLETTE       FAIR      35  21  56 SE6       29.64R WCI  30
HULETT         FAIR      34  21  60 SW10      29.63R WCI  26
NEWCASTLE      FAIR      28  19  69 N5        29.67R WCI  23

$$
WYZ014>020-022>026-101>103-190600-
CENTRAL WYOMING

CITY           SKY/WX    TMP DP  RH WIND       PRES   REMARKS
BIG PINEY      FAIR      -3  -7  82 NW3       29.88S
PINEDALE       FAIR      -6  -8  92 CALM      29.88S
DUBOIS         NOT AVBL
LANDER         FAIR      13   8  81 NW6       29.76F WCI   4
RIVERTON       FAIR      10   4  76 W6        29.77F WCI   0
CASPER         FAIR      32  17  54 SW21G33   29.73F WCI  20
DOUGLAS        FAIR      26  17  68 N10       29.68R WCI  16

$$
WYZ021-027>030-104>119-190600-
SOUTHERN WYOMING

CITY           SKY/WX    TMP DP  RH WIND       PRES   REMARKS
EVANSTON       FAIR      24   8  50 S7        29.84F WCI  16
ROCK SPRINGS   FAIR      10   5  80 E3        29.87F
RAWLINS        FAIR      26  16  65 W5        29.87S WCI  20
LARAMIE        FAIR      13  10  88 NE7       29.80R WCI   3
CHEYENNE       FAIR      27  17  66 W8        29.69F WCI  19
TORRINGTON     FAIR      33  19  56 CALM      29.65F

$$



USA.gov is the U.S. government's official web portal to all federal, state and local government web resources and services.